Regional Weather Roundup
Issued by NWS Boston, MA

Home | Current Version | Previous Version | Text Only | Print | Product List | Glossary On
Versions: 1 2 3 4 5 6 7 8 9 10 11 12 13 14 15 16 17 18 19 20 21 22 23 24 25 26 27 28 29 30 31 32 33 34 35 36 37 38 39 40 41 42 43 44 45 46 47 48 49 50
000
ASUS41 KBOX 251810
RWRBOX

REGIONAL WEATHER ROUNDUP
NATIONAL WEATHER SERVICE TAUNTON MA
200 PM EDT MON JUL 25 2016

NOTE:  "FAIR" INDICATES FEW OR NO CLOUDS BELOW 12,000 FEET WITH NO
SIGNIFICANT WEATHER AND/OR OBSTRUCTIONS TO VISIBILITY.  THE FOLLOWING
OBSERVATION LOCATIONS DO NOT REPORT PRESENT WEATHER...PROVINCETOWN...
SMITHFIELD...BLOCK ISLAND...KEENE...AND OXFORD.

MAZALL-251900-
EASTERN MASSACHUSETTS

CITY           SKY/WX    TMP DP  RH WIND       PRES   REMARKS
BOSTON         PTSUNNY   80  69  69 E10       29.85F
6HR MIN TEMP:  72; 6HR MAX TEMP:  81;

BEVERLY        MOSUNNY   86  69  56 SE10      29.85F HX  90
LAWRENCE       MOSUNNY   91  65  41 E13       29.86F HX  93
BEDFORD        PTSUNNY   93  65  39 SW8       29.83F HX  95
BLUE HILL        N/A     93  66  40 SW14      29.87F HX  96
NORWOOD        MOSUNNY   94  69  44 W10G16    29.84F HX  99
MARSHFIELD     SUNNY     93  70  46 SW12G17   29.84F HX  99
PLYMOUTH       SUNNY     93  66  40 SW15      29.87F HX  96
TAUNTON        SUNNY     90  69  50 SW12G18   29.86F HX  94
NEW BEDFORD    SUNNY     89  71  55 SW16      29.88F HX  95
$$

MAZALL-251900-
CAPE COD AND THE ISLANDS

CITY           SKY/WX    TMP DP  RH WIND       PRES   REMARKS
FALMOUTH       SUNNY     82  73  74 MISG        N/A
HYANNIS        SUNNY     85  70  60 SW20G28   29.89F
CHATHAM        SUNNY     82  73  74 SW15G26   29.92F
PROVINCETOWN   SUNNY     86  72  62 SW16G22   29.88F HX  92
NANTUCKET      CLOUDY    76  71  85 S14       29.93F
MARTHAS VNYRD  CLOUDY    80  73  79 SW14      29.92F
$$

MAZALL-251900-
CENTRAL AND WESTERN MASSACHUSETTS

CITY           SKY/WX    TMP DP  RH WIND       PRES   REMARKS
WORCESTER      CLOUDY    88  62  41 SW13      29.91S
6HR MIN TEMP:  73; 6HR MAX TEMP:  89;

FITCHBURG      PTSUNNY   95  65  37 W12G23    29.86S HX  97
ORANGE         CLOUDY    91  67  44 S9        29.86F HX  94
SPRINGFIELD    PTSUNNY   94  67  40 SW16G23   29.83F HX  97
WESTFIELD      MOSUNNY   94  67  41 S9G22     29.84S HX  97
NORTH ADAMS    PTSUNNY   85  67  54 W6        29.87F
PITTSFIELD     CLOUDY    85  64  49 W9        29.90S
$$

RIZALL-251900-
RHODE ISLAND

CITY           SKY/WX    TMP DP  RH WIND       PRES   REMARKS
PROVIDENCE     MOSUNNY   91  65  41 SW14G23   29.88F HX  93
6HR MIN TEMP:  75; 6HR MAX TEMP:  91;

NEWPORT        SUNNY     84  69  60 S12       29.90F
BLOCK ISLAND   CLOUDY    79  69  71 SW13      29.92F
SMITHFIELD     PTSUNNY  N/A N/A N/A SW6       29.89S
WESTERLY       MOSUNNY   85  65  51 SW12G17   29.92S
$$

CTZALL-251900-
CONNECTICUT

CITY           SKY/WX    TMP DP  RH WIND       PRES   REMARKS
BRADLEY INTL   PTSUNNY   94  65  38 S12G18    29.84F HX  96
6HR MIN TEMP:  73; 6HR MAX TEMP:  96;

HARTFORD       SUNNY     94  70  45 S12G17    29.85F HX 100
BRIDGEPORT     SUNNY     86  71  60 SW10      29.89S HX  91
DANBURY        MOSUNNY   91  71  51 SW8       29.88F HX  97
GROTON         SUNNY     83  70  64 S7        29.89F
NEW HAVEN      SUNNY     85  71  63 SW8       29.89F HX  90
CHESTER        FAIR      86  68  54 SW10G16   29.91S
MERIDEN        SUNNY     91  70  49 S14       29.87F HX  96
WILLIMANTIC    NOT AVBL
OXFORD         PTSUNNY   88  70  55 SW7       29.93F HX  92
$$

MEZ002-015-021-024-NHZ003-005-008-011-012-014-VTZ005-008-251900-
NORTHERN NEW ENGLAND

CITY           SKY/WX    TMP DP  RH WIND       PRES   REMARKS
PORTLAND ME    PTSUNNY   83  54  36 S12       29.88F
6HR MIN TEMP:  70; 6HR MAX TEMP:  84;

BANGOR ME      PTSUNNY   88  57  34 SE7       29.87F
CONCORD NH     PTSUNNY   90  62  39 S7        29.86F HX  90
MANCHESTER NH  CLOUDY    90  63  40 VRB3      29.83F HX  91
NASHUA NH      MOSUNNY   93  69  45 S6        29.83F HX  98
PORTSMOUTH NH  PTSUNNY   79  60  50 SE10      29.86F
JAFFREY NH     MOSUNNY   89  64  43 VRB6      29.89F HX  90
KEENE NH       CLOUDY    90  68  48 SW9         N/A  HX  94
BURLINGTON VT  LGT RAIN  79  67  66 S8        29.83F
MT. WASHINGTON PTSUNNY   64  50  59 W17         N/A
$$

NYZ052-076-251900-
EASTERN NEW YORK

CITY           SKY/WX    TMP DP  RH WIND       PRES   REMARKS
ALBANY         LGT RAIN  81  69  67 W7        29.87S
6HR MIN TEMP:  72; 6HR MAX TEMP:  89; 6HR PCP:  0.01;

NEW YORK CITY  MOSUNNY   92  72  51 SE8       29.87F HX  99
6HR MIN TEMP:  81; 6HR MAX TEMP:  92;

$$

ANZALL-251900-
MARINE OBSERVATIONS

STATION/POSITION TIME  TEMP    WIND        PRES    VSBY  WAVE
                       AIR SEA DIR/SP/G                  HT/PER
                 (UTC) (F)     (DEG/KT/KT) (MB)    (MI)  (FT/S)
BOSTON BUOY      1750   73 72  100/  8/ 10 1010.7F         1/ 6
BUZZARDS BAY     1700   73     210/ 17/ 18 1013.7F
NANTUCKET SOUND  1750   74 75  220/ 16/ 17 1012.6F         1/ 3
MASS BAY-STELLWA 1704   71 69  110/  6/  6 1011.7F  1 7/8  1/ 6
ISLE OF SHOALS   1800   69      90/  9/ 10 1011.3F
S OF BLOCK IS    1725      72                N/A           2/ 5
$$

......................KEY.........................
  SKY/WX - SKY CONDITION/PRESENT WEATHER
  TMP    - TEMPERATURE IN FAHRENHEIT
  DWPT   - DEWPOINT IN FAHRENHEIT
  RH     - RELATIVE HUMIDITY IN PERCENT
  WIND   - DIRECTION AND SPEED IN MPH
  PRES   - MEAN SEA LEVEL PRESSURE IN INCHES OF HG
  WCI    - WIND CHILL INDEX
  VSB    - VISIBILITY IN MILES
  HX     - HEAT INDEX
  TC     - TEMPERATURE IN CELSIUS
  VRB    - VARIABLE WIND DIRECTION
  N/A    - NOT AVAILABLE



USA.gov is the U.S. government's official web portal to all federal, state and local government web resources and services.